Charlotte, MI

8:34 PM EDT on September 27, 2016 (GMT -0400)
Charlotte

Weather History for KFPK - January, 2013

Change the Weather History Date:

Wednesday, January 16, 2013

  Actual Average (KLAN) Record (KLAN)
Temperature  
Mean Temperature 24 °F 23 °F  
Max Temperature 35 °F 30 °F 55 °F (1949)
Min Temperature 13 °F 17 °F -17 °F (1984)
Degree Days  
Heating Degree Days 41 42  
Month to date heating degree days 663  
Since 1 July heating degree days 3215  
Cooling Degree Days 0 0  
Month to date cooling degree days 0  
Year to date cooling degree days 0  
Moisture  
Dew Point 20 °F    
Average Humidity 79    
Maximum Humidity 96    
Minimum Humidity 48    
Precipitation  
Precipitation 0.00 in 0.06 in 1.40 in (1873)
Month to date precipitation 0.94  
Year to date precipitation 0.94  
Snow  
Snow 0.00 in 0.50 in 12.00 in (1873)
Month to date snowfall 7.3  
Since 1 July snowfall 24.1  
Snow Depth -    
Sea Level Pressure  
Sea Level Pressure 29.90 in    
Wind  
Wind Speed 5 mph (SW)    
Max Wind Speed 20 mph    
Max Gust Speed 30 mph    
Visibility 9 miles    
Events      
T = Trace of Precipitation, MM = Missing Value Source: NWS Daily Summary

Daily Weather History Graph

Daily Weather History Graph

Search for Another Location

Airport or City:

Trip Planner

Search our weather history database for the weather conditions in past years. The results will help you decide how hot, cold, wet, or windy it might be!

Date:

Astronomy

Jan. 16, 2013 Rise Set
Actual Time 8:05 AM EST 5:32 PM EST
Civil Twilight 7:34 AM EST 6:03 PM EST
Nautical Twilight 7:00 AM EST 6:38 PM EST
Astronomical Twilight 6:26 AM EST 7:12 PM EST
Moon 10:33 AM EST (1/16) 11:32 PM EST (1/16)
Length of Visible Light 10h 29m
Length of Day
9h 27m
Waxing Crescent, 28% of the Moon is Illuminated
Jan 16
Waxing Crescent
Jan 18
First Quarter
Jan 26
Full
Feb 3
Last Quarter
Feb 10
New

Hourly Weather History & Observations

Time (EST) Temp. Windchill Dew Point Humidity Pressure Visibility Wind Dir Wind Speed Gust Speed Precip Events Conditions
12:15 AM 14.9 °F - 13.8 °F 95% 30.10 in 5.0 mi Calm Calm - N/A   Clear
12:35 AM 15.6 °F - 14.5 °F 95% 30.09 in 7.0 mi Calm Calm - N/A   Clear
1:15 AM 16.7 °F - 15.8 °F 96% 30.07 in 7.0 mi Calm Calm - N/A   Clear
1:35 AM 15.6 °F - 14.5 °F 95% 30.06 in 7.0 mi Calm Calm - N/A   Clear
1:55 AM 14.2 °F - 13.3 °F 96% 30.05 in 7.0 mi Calm Calm - N/A   Clear
2:15 AM 13.1 °F - 12.0 °F 95% 30.05 in 7.0 mi Calm Calm - N/A   Mostly Cloudy
2:35 AM 14.0 °F - 13.1 °F 96% 30.04 in 7.0 mi Calm Calm - N/A   Mostly Cloudy
2:55 AM 14.9 °F - 14.0 °F 96% 30.04 in 7.0 mi Calm Calm - N/A   Mostly Cloudy
3:15 AM 16.0 °F - 14.9 °F 95% 30.04 in 7.0 mi Calm Calm - N/A   Scattered Clouds
3:35 AM 15.6 °F - 14.5 °F 95% 30.04 in 7.0 mi Calm Calm - N/A   Clear
3:55 AM 15.8 °F - 14.7 °F 95% 30.03 in 7.0 mi Calm Calm - N/A   Clear
4:15 AM 14.9 °F - 14.0 °F 96% 30.02 in 7.0 mi Calm Calm - N/A   Clear
4:35 AM 14.5 °F - 13.3 °F 95% 30.02 in 7.0 mi Calm Calm - N/A   Scattered Clouds
4:55 AM 14.2 °F - 13.3 °F 96% 30.01 in 7.0 mi Calm Calm - N/A   Overcast
5:15 AM 14.4 °F - 13.3 °F 95% 30.00 in 7.0 mi Calm Calm - N/A   Mostly Cloudy
5:35 AM 15.6 °F - 14.4 °F 95% 29.99 in 7.0 mi Calm Calm - N/A   Mostly Cloudy
5:55 AM 16.7 °F - 15.8 °F 96% 29.98 in 7.0 mi Calm Calm - N/A   Mostly Cloudy
6:15 AM 17.4 °F - 16.3 °F 96% 29.96 in 7.0 mi Calm Calm - N/A   Mostly Cloudy
7:35 AM 14.9 °F - 14.0 °F 96% 29.93 in 7.0 mi Calm Calm - N/A   Clear
7:55 AM 16.3 °F - 15.4 °F 96% 29.93 in 5.0 mi Calm Calm - N/A   Clear
8:15 AM 17.2 °F - 16.3 °F 96% 29.93 in 5.0 mi Calm Calm - N/A   Clear
8:35 AM 16.3 °F - 15.4 °F 96% 29.92 in 5.0 mi Calm Calm - N/A   Clear
8:55 AM 17.6 °F - 16.5 °F 96% 29.93 in 5.0 mi Calm Calm - N/A   Clear
9:15 AM 21.4 °F 12.8 °F 20.5 °F 96% 29.92 in 7.0 mi SSW 6.9 mph - N/A   Clear
9:35 AM 23.0 °F 14.7 °F 21.9 °F 96% 29.92 in 7.0 mi SW 6.9 mph - N/A   Clear
9:55 AM 24.8 °F 14.6 °F 23.0 °F 93% 29.91 in 10.0 mi SW 10.4 mph 16.1 mph N/A   Clear
10:15 AM 25.9 °F 16.6 °F 23.7 °F 92% 29.91 in 10.0 mi SSW 9.2 mph - N/A   Clear
10:35 AM 27.0 °F 17.3 °F 23.7 °F 88% 29.90 in 10.0 mi SW 10.4 mph 16.1 mph N/A   Clear
10:55 AM 28.4 °F 19.7 °F 24.3 °F 84% 29.89 in 10.0 mi SW 9.2 mph - N/A   Clear
11:15 AM 30.0 °F 21.1 °F 24.6 °F 80% 29.87 in 10.0 mi SSW 10.4 mph - N/A   Clear
11:35 AM 30.6 °F 19.4 °F 23.9 °F 76% 29.85 in 10.0 mi SSW 16.1 mph 19.6 mph N/A   Clear
11:55 AM 31.8 °F 21.8 °F 23.4 °F 71% 29.84 in 10.0 mi SSW 13.8 mph 18.4 mph N/A   Clear
12:15 PM 32.0 °F 22.5 °F 21.7 °F 66% 29.83 in 10.0 mi SW 12.7 mph 24.2 mph N/A   Clear
12:35 PM 32.4 °F 23.0 °F 20.3 °F 61% 29.82 in 10.0 mi SW 12.7 mph 20.7 mph N/A   Clear
12:55 PM 33.1 °F 21.5 °F 20.3 °F 59% 29.81 in 10.0 mi SSW 19.6 mph 23.0 mph N/A   Clear
1:15 PM 33.3 °F 23.7 °F 19.2 °F 56% 29.80 in 10.0 mi SSW 13.8 mph 21.9 mph N/A   Clear
1:35 PM 33.8 °F 24.8 °F 18.7 °F 54% 29.79 in 10.0 mi SW 12.7 mph 20.7 mph N/A   Clear
1:55 PM 34.5 °F 24.5 °F 18.3 °F 52% 29.78 in 10.0 mi SSW 16.1 mph 19.6 mph N/A   Clear
2:15 PM 35.1 °F 25.5 °F 17.8 °F 49% 29.78 in 10.0 mi SW 15.0 mph 20.7 mph N/A   Clear
2:35 PM 34.5 °F 24.5 °F 16.5 °F 48% 29.77 in 10.0 mi WSW 16.1 mph 23.0 mph N/A   Scattered Clouds
2:55 PM 34.3 °F 24.6 °F 16.5 °F 48% 29.77 in 10.0 mi SW 15.0 mph 25.3 mph N/A   Overcast
3:15 PM 34.5 °F 25.3 °F 17.2 °F 49% 29.77 in 10.0 mi SW 13.8 mph 24.2 mph N/A   Overcast
3:35 PM 34.2 °F 26.2 °F 18.3 °F 52% 29.77 in 10.0 mi SW 10.4 mph 20.7 mph N/A   Overcast
3:55 PM 34.0 °F 24.6 °F 18.7 °F 54% 29.77 in 10.0 mi SW 13.8 mph 18.4 mph N/A   Overcast
4:15 PM 33.8 °F 25.8 °F 19.0 °F 55% 29.77 in 10.0 mi SSW 10.4 mph 17.3 mph N/A   Overcast
4:35 PM 33.8 °F 24.3 °F 19.2 °F 55% 29.78 in 10.0 mi SW 13.8 mph 20.7 mph N/A   Overcast
4:55 PM 34.0 °F 24.6 °F 18.9 °F 54% 29.80 in 10.0 mi SW 13.8 mph 19.6 mph N/A   Overcast
5:15 PM 34.0 °F 24.2 °F 19.2 °F 55% 29.81 in 10.0 mi SW 15.0 mph 19.6 mph N/A   Overcast
5:35 PM 34.0 °F 25.5 °F 20.3 °F 57% 29.81 in 10.0 mi WSW 11.5 mph 29.9 mph N/A   Overcast
5:55 PM 34.0 °F 25.5 °F 20.8 °F 59% 29.81 in 10.0 mi WSW 11.5 mph 25.3 mph N/A   Overcast
6:15 PM 34.0 °F 26.0 °F 21.2 °F 60% 29.82 in 10.0 mi SW 10.4 mph 18.4 mph N/A   Overcast
6:55 PM 34.0 °F 26.0 °F 22.6 °F 63% 29.84 in 10.0 mi WSW 10.4 mph 18.4 mph N/A   Overcast
7:15 PM 33.8 °F 27.0 °F 23.5 °F 66% 29.85 in 10.0 mi SW 8.1 mph - N/A   Overcast
7:35 PM 34.0 °F 25.0 °F 25.3 °F 71% 29.85 in 10.0 mi WSW 12.7 mph 20.7 mph N/A   Overcast
7:55 PM 33.8 °F 25.8 °F 26.4 °F 74% 29.86 in 10.0 mi SW 10.4 mph 23.0 mph N/A   Overcast
8:15 PM 33.8 °F 25.8 °F 27.0 °F 76% 29.86 in 10.0 mi SW 10.4 mph 19.6 mph N/A   Overcast
8:35 PM 33.8 °F 24.8 °F 27.9 °F 79% 29.87 in 10.0 mi WSW 12.7 mph 18.4 mph N/A   Overcast
8:55 PM 33.8 °F 25.3 °F 28.4 °F 81% 29.87 in 10.0 mi SW 11.5 mph 19.6 mph N/A   Overcast
9:15 PM 33.8 °F 26.4 °F 29.1 °F 83% 29.88 in 10.0 mi WSW 9.2 mph 16.1 mph N/A   Overcast
9:35 PM 33.8 °F 25.8 °F 29.3 °F 84% 29.89 in 10.0 mi WSW 10.4 mph 16.1 mph N/A   Overcast
9:55 PM 33.8 °F 27.7 °F 29.7 °F 85% 29.89 in 10.0 mi WSW 6.9 mph - N/A   Overcast
10:15 PM 33.8 °F 26.4 °F 30.0 °F 86% 29.90 in 10.0 mi WSW 9.2 mph - N/A   Overcast
10:35 PM 34.0 °F 28.0 °F 30.2 °F 86% 29.90 in 10.0 mi West 6.9 mph - N/A   Overcast
10:55 PM 34.3 °F 27.7 °F 30.4 °F 85% 29.91 in 10.0 mi WSW 8.1 mph - N/A   Overcast
11:15 PM 34.7 °F 26.9 °F 30.2 °F 84% 29.92 in 10.0 mi West 10.4 mph - N/A   Overcast
11:35 PM 34.7 °F 28.8 °F 30.6 °F 85% 29.92 in 10.0 mi WSW 6.9 mph - N/A   Overcast
11:55 PM 34.5 °F 27.3 °F 30.6 °F 85% 29.93 in 10.0 mi WSW 9.2 mph - N/A   Overcast